Wind_Speed
23 24 25 25 26 27 27 27 27 28 30 31 30 29 28 29 30 31 32 32 31 32 32 33 34 36 38 39 40 42 42 42 42 44 44 44 44 44 45 46 48 47 47 48
22 23 23 24 25 26 27 27 27 27 28 29 28 28 27 28 28 29 30 31 31 32 31 33 33 35 37 38 39 41 42 43 43 44 44 45 44 45 45 45 46 47 48 49
22 22 22 23 24 25 26 26 26 27 26 27 27 26 25 26 28 29 29 30 30 31 32 32 34 34 36 37 38 39 40 42 43 45 45 45 45 44 44 45 45 46 48 49
21 21 21 21 22 23 24 25 25 26 26 25 26 27 25 26 28 28 27 27 28 30 32 33 34 35 36 38 39 40 40 40 42 45 45 44 45 45 43 44 46 46 47 48
19 19 19 20 21 22 23 25 25 26 26 26 26 27 26 27 28 28 28 27 27 28 30 32 34 35 36 38 38 40 40 39 41 42 43 45 45 46 44 44 46 45 46 46
19 19 18 18 20 21 23 25 26 26 26 26 25 27 26 26 27 28 28 26 27 28 28 30 34 35 35 36 38 38 39 39 41 41 42 44 45 45 45 44 45 45 46 46
19 19 19 19 20 21 23 23 24 25 25 25 24 26 26 25 26 27 26 27 27 27 28 30 33 35 35 36 37 39 39 39 40 41 40 41 43 44 45 45 45 44 45 45
19 19 19 20 20 21 21 21 22 23 24 24 23 24 24 25 26 25 25 27 28 28 29 30 32 33 34 35 37 38 40 39 40 39 40 39 41 42 43 44 44 44 44 44
20 19 20 21 21 21 21 20 21 23 23 23 23 22 22 22 23 24 25 27 28 29 31 31 31 32 34 35 36 37 39 39 39 39 39 38 39 40 42 43 44 44 44 44
21 21 21 21 21 21 21 21 21 22 23 24 23 22 21 21 21 21 23 24 26 28 30 31 31 30 32 34 35 37 38 39 40 40 39 38 37 39 39 40 40 40 42 42
23 23 22 22 21 21 21 21 21 22 23 24 24 22 22 21 22 22 22 23 25 26 27 28 29 31 31 33 34 36 38 38 39 39 39 39 37 37 37 37 37 38 39 42
24 24 23 22 22 21 22 21 21 22 23 23 24 23 21 21 22 23 23 23 24 24 24 25 26 28 29 31 33 36 38 39 39 38 38 39 38 38 36 36 36 37 38 38
24 24 24 23 23 22 22 22 22 23 23 22 22 21 20 21 22 23 23 23 23 24 24 24 25 27 28 30 31 33 36 38 38 38 38 37 37 36 36 35 36 36 36 37
24 24 24 24 23 22 21 21 21 22 22 23 22 20 19 19 21 22 22 22 22 23 24 24 25 26 27 27 28 28 31 34 35 36 37 37 37 37 36 34 34 34 35 35
24 24 24 23 23 22 21 20 21 21 22 23 21 21 19 20 22 23 22 22 21 21 23 23 23 24 25 26 26 27 28 30 32 33 35 36 35 35 35 35 34 33 33 34
23 23 23 22 22 22 21 21 21 22 22 23 23 22 22 21 22 22 23 22 22 22 23 24 24 24 24 24 24 25 26 28 29 29 30 32 32 33 33 34 34 34 34 34
22 22 21 21 22 22 21 21 22 22 22 23 23 23 23 23 22 22 22 22 22 23 23 23 24 23 22 23 23 23 24 25 27 27 28 29 29 29 31 32 31 31 32 33
22 22 22 21 21 21 21 21 21 21 21 22 22 23 23 23 23 22 22 22 23 24 25 25 25 24 23 22 22 23 23 24 25 25 26 27 27 27 28 28 29 29 29 29
23 23 22 21 21 21 21 21 22 22 22 22 23 24 24 24 24 23 23 23 23 24 24 25 24 23 22 22 21 22 22 22 22 22 23 24 25 26 27 27 27 28 28 29
23 23 23 22 22 22 21 21 22 22 22 22 23 24 25 25 25 24 24 24 23 24 24 24 23 22 21 21 21 20 20 20 20 20 21 22 23 25 26 27 26 27 27 27
22 22 22 23 22 22 22 21 22 22 22 22 23 24 25 25 25 25 24 23 23 23 23 23 22 22 21 21 21 20 19 19 19 19 19 20 22 23 24 24 25 25 25 26
21 21 21 22 22 22 22 22 22 22 23 23 24 24 25 25 25 24 23 23 23 23 22 22 21 21 21 20 19 19 19 19 19 18 19 20 21 22 22 23 23 24 24 25
21 21 21 21 21 22 22 23 23 24 24 24 24 24 25 24 24 23 23 23 23 23 22 21 20 20 20 19 18 18 18 19 19 19 19 20 20 21 22 23 23 24 24 24
21 21 21 20 20 21 21 22 23 24 24 24 24 24 25 23 23 22 23 23 23 22 21 19 19 19 19 18 18 18 18 19 19 19 19 20 20 21 22 22 22 22 23 23
22 22 21 21 21 21 21 22 23 23 23 23 23 23 23 22 21 21 22 22 22 22 20 19 19 19 18 18 18 18 18 18 19 19 19 19 19 19 20 21 21 20 21 21
22 22 22 22 21 21 21 22 22 22 23 23 22 22 21 21 21 20 20 21 20 20 19 19 18 18 18 18 18 18 18 17 17 17 17 17 18 19 19 19 20 20 20 21
Wind_Direction
286 280 275 274 275 276 277 278 278 278 277 275 274 274 274 273 269 267 267 266 264 259 255 254 251 250 247 247 247 247 247 247 246 245 246 247 250 251 250 250 250 250 250 250
288 283 280 277 276 276 276 276 276 278 280 279 275 273 274 274 270 269 269 266 263 259 254 254 253 250 247 246 248 249 248 248 247 247 247 247 250 250 250 251 251 251 250 251
289 288 284 281 278 277 276 276 277 278 280 280 279 278 277 275 273 272 271 267 264 260 255 252 252 249 247 246 248 251 250 248 248 248 248 248 249 249 250 251 254 253 252 252
293 288 285 283 281 281 279 277 278 277 279 280 282 282 277 275 274 273 272 269 266 261 257 254 253 250 249 249 251 249 250 248 249 249 248 249 249 250 252 252 253 253 252 252
300 294 288 286 284 282 283 280 281 280 280 281 283 284 280 277 274 274 273 269 268 263 262 258 254 252 250 250 250 248 248 247 249 250 250 251 251 251 252 252 252 253 252 252
299 297 296 296 293 289 288 285 283 282 280 281 282 283 283 279 276 276 273 270 271 267 266 263 257 252 252 253 251 248 247 248 249 250 252 252 251 252 252 253 253 253 252 251
302 299 298 299 298 297 296 293 290 287 282 281 283 284 284 283 279 278 273 272 274 271 270 267 261 254 253 253 252 251 249 250 250 251 252 252 251 253 253 253 253 252 252 250
305 302 299 298 299 300 300 297 292 289 288 284 286 288 288 286 283 279 276 274 276 273 271 272 267 259 257 256 254 252 252 253 252 252 252 254 254 253 253 253 253 252 250 249
305 302 299 299 300 300 298 296 293 289 289 289 289 292 294 291 287 282 280 279 279 275 273 273 269 263 261 258 256 254 254 255 255 255 255 256 257 255 254 253 252 251 251 250
301 299 299 300 299 298 297 295 293 291 291 289 289 294 297 293 290 286 285 284 282 281 277 274 269 267 262 259 258 256 255 256 256 257 257 258 258 257 256 255 254 254 253 252
299 297 298 299 299 297 297 295 292 290 291 290 291 295 298 295 290 290 290 289 288 285 282 277 272 269 266 263 261 258 257 257 257 257 258 257 257 257 254 253 253 254 255 256
298 296 297 298 298 297 295 293 289 288 289 290 291 297 300 296 292 292 294 294 293 288 284 280 277 274 270 267 265 262 259 258 257 257 257 257 256 256 254 254 255 256 256 257
297 296 296 296 296 295 295 293 288 285 286 289 293 298 299 296 294 296 297 297 295 290 285 285 282 280 278 275 270 267 262 259 258 256 256 257 257 256 256 257 256 257 256 256
295 294 294 295 295 295 294 291 287 284 285 287 290 296 296 294 294 296 297 297 296 291 288 288 285 284 282 279 275 272 265 260 258 256 256 258 257 256 259 258 257 257 257 256
294 294 293 293 292 291 291 289 285 283 283 286 288 293 295 294 293 295 297 296 294 295 294 294 291 288 285 281 276 273 268 262 259 257 256 257 257 258 259 258 256 256 257 257
294 293 292 291 291 291 289 288 285 282 282 286 287 291 293 294 295 295 294 295 295 296 296 295 295 292 287 282 277 272 270 266 261 258 257 257 258 260 261 261 260 260 259 258
294 294 292 292 293 291 288 288 286 286 286 287 288 290 291 293 295 296 294 294 294 295 295 297 298 296 289 286 280 276 272 270 267 262 259 258 258 260 261 261 261 261 261 259
297 295 292 292 292 291 290 289 288 287 287 289 291 292 291 293 295 295 294 293 293 296 297 298 299 296 288 284 282 278 274 271 269 266 262 258 257 258 259 260 261 261 262 261
298 295 293 291 291 291 287 288 289 287 287 288 291 291 290 291 294 295 294 293 293 295 297 299 299 297 291 285 281 281 277 272 268 267 264 259 258 258 258 259 260 260 260 259
299 296 292 290 291 291 289 288 288 287 287 288 290 292 291 290 294 296 295 294 294 296 297 297 298 295 293 287 282 279 276 273 269 266 264 262 261 261 260 259 259 260 258 257
302 298 293 289 287 287 288 288 288 289 291 291 292 294 294 292 293 295 295 295 296 297 297 297 295 294 292 288 283 278 274 271 270 269 269 267 265 264 263 261 261 259 257 255
303 299 295 291 288 286 287 286 287 291 292 292 292 295 295 294 292 293 294 296 297 298 299 296 293 293 291 288 285 281 274 272 271 270 269 269 267 265 264 263 262 263 261 257
304 302 298 295 291 288 286 285 287 290 291 292 292 294 294 293 292 292 293 294 296 297 297 294 292 293 292 287 284 283 279 275 273 273 271 270 269 267 264 264 264 264 263 261
301 302 300 297 293 289 287 286 288 290 292 292 292 292 292 292 291 292 293 293 294 295 294 291 289 289 289 287 285 285 282 277 273 273 272 271 269 269 266 265 267 266 263 262
302 303 302 299 296 291 287 287 288 291 293 294 293 292 292 292 291 292 293 293 293 293 291 289 290 288 286 283 283 283 282 278 277 277 276 274 272 269 267 266 268 267 264 261
305 304 302 299 298 293 288 286 289 290 293 295 295 294 292 291 293 294 294 293 292 291 289 288 287 287 284 282 283 283 281 279 280 280 279 277 274 271 270 270 270 266 264 264
Height
5697 5696 5694 5694 5693 5692 5690 5689 5688 5687 5684 5683 5682 5681 5679 5677 5676 5675 5674 5674 5673 5674 5675 5675 5676 5677 5678 5680 5682 5684 5687 5689 5691 5694 5697 5700 5702 5704 5706 5708 5710 5713 5715 5717
5691 5689 5688 5686 5685 5684 5683 5681 5680 5679 5677 5675 5674 5673 5672 5670 5669 5667 5666 5665 5665 5666 5666 5666 5666 5667 5668 5670 5672 5674 5676 5679 5681 5684 5687 5690 5692 5694 5696 5698 5700 5702 5704 5706
5685 5684 5681 5680 5678 5677 5676 5675 5674 5672 5671 5669 5668 5667 5665 5663 5661 5660 5659 5658 5657 5658 5658 5658 5658 5658 5660 5661 5663 5664 5666 5669 5671 5674 5676 5679 5681 5684 5686 5688 5690 5691 5693 5695
5679 5677 5675 5673 5672 5671 5670 5669 5667 5665 5664 5662 5661 5659 5659 5657 5655 5653 5652 5651 5650 5650 5650 5650 5650 5651 5651 5652 5653 5655 5657 5659 5661 5664 5667 5670 5672 5674 5676 5678 5679 5680 5682 5684
5673 5671 5670 5668 5667 5665 5663 5662 5661 5659 5657 5656 5654 5652 5652 5650 5648 5647 5645 5644 5643 5643 5642 5642 5642 5642 5642 5643 5643 5645 5647 5649 5651 5654 5657 5659 5661 5663 5664 5666 5668 5669 5671 5673
5668 5666 5664 5663 5661 5659 5657 5656 5654 5652 5651 5650 5649 5646 5645 5643 5641 5640 5638 5637 5636 5635 5634 5634 5633 5633 5633 5634 5634 5635 5637 5639 5641 5644 5646 5648 5650 5651 5654 5655 5656 5658 5660 5662
5664 5661 5659 5658 5656 5654 5652 5650 5648 5645 5644 5644 5643 5640 5639 5636 5634 5633 5631 5630 5629 5628 5627 5626 5625 5625 5625 5625 5626 5626 5628 5630 5632 5634 5636 5637 5638 5640 5642 5644 5646 5647 5649 5651
5658 5657 5655 5652 5651 5649 5646 5644 5643 5640 5638 5637 5636 5633 5633 5630 5628 5626 5624 5623 5621 5620 5620 5618 5617 5617 5616 5617 5617 5618 5619 5620 5622 5624 5625 5626 5628 5629 5631 5632 5634 5636 5638 5640
5653 5651 5649 5647 5644 5643 5641 5639 5637 5634 5632 5631 5630 5628 5627 5624 5622 5620 5618 5616 5614 5613 5611 5610 5609 5608 5608 5608 5608 5609 5610 5611 5613 5614 5615 5616 5617 5619 5621 5622 5624 5625 5627 5629
5647 5645 5644 5641 5639 5637 5635 5633 5631 5629 5626 5625 5624 5622 5620 5617 5615 5613 5611 5609 5607 5605 5604 5602 5601 5599 5599 5599 5599 5599 5600 5601 5602 5604 5605 5607 5608 5609 5611 5612 5614 5616 5617 5618
5641 5639 5638 5636 5633 5631 5629 5627 5625 5622 5621 5619 5617 5619 5614 5611 5608 5606 5605 5603 5600 5598 5596 5594 5593 5592 5591 5590 5590 5590 5591 5592 5593 5594 5596 5597 5598 5599 5601 5603 5604 5606 5607 5609
5635 5633 5631 5630 5627 5624 5623 5621 5619 5618 5616 5613 5611 5614 5608 5605 5602 5600 5598 5596 5594 5591 5589 5587 5586 5584 5582 5582 5582 5581 5581 5582 5584 5585 5586 5587 5589 5590 5591 5593 5594 5596 5597 5598
5628 5626 5625 5623 5623 5619 5616 5614 5612 5610 5609 5607 5605 5608 5602 5598 5596 5594 5592 5590 5588 5585 5583 5580 5579 5577 5575 5573 5573 5572 5572 5573 5574 5575 5576 5577 5579 5580 5582 5583 5584 5586 5587 5589
5621 5620 5619 5617 5614 5612 5610 5608 5606 5604 5603 5601 5600 5599 5597 5593 5591 5589 5587 5584 5582 5579 5576 5574 5572 5569 5567 5565 5564 5563 5563 5563 5565 5566 5568 5569 5570 5571 5572 5574 5575 5576 5577 5579
5614 5613 5611 5609 5607 5605 5604 5602 5600 5598 5597 5595 5595 5592 5590 5587 5585 5582 5580 5578 5575 5573 5570 5567 5565 5562 5559 5557 5555 5554 5554 5555 5556 5557 5559 5560 5561 5562 5563 5564 5566 5567 5568 5569
5607 5606 5604 5603 5600 5598 5597 5595 5593 5592 5590 5589 5587 5587 5584 5581 5579 5577 5574 5572 5569 5567 5563 5561 5558 5555 5552 5550 5548 5547 5547 5547 5548 5549 5550 5551 5553 5554 5555 5556 5557 5557 5558 5559
5601 5599 5597 5596 5594 5592 5591 5590 5588 5586 5585 5583 5581 5581 5578 5576 5573 5571 5568 5566 5563 5560 5558 5555 5552 5548 5546 5544 5542 5541 5541 5540 5540 5541 5542 5543 5544 5545 5546 5547 5547 5548 5549 5549
5594 5592 5590 5588 5588 5586 5587 5583 5582 5580 5578 5577 5575 5573 5572 5569 5567 5565 5562 5559 5557 5554 5552 5548 5545 5542 5540 5538 5536 5535 5534 5534 5534 5534 5535 5536 5536 5537 5538 5539 5539 5539 5540 5541
5588 5586 5583 5582 5580 5579 5580 5578 5575 5573 5573 5571 5569 5567 5565 5563 5561 5559 5556 5553 5550 5548 5545 5542 5539 5536 5534 5532 5531 5529 5528 5527 5527 5527 5528 5528 5529 5530 5530 5531 5531 5532 5532 5533
5581 5579 5578 5575 5573 5573 5574 5571 5568 5567 5566 5564 5562 5560 5558 5556 5554 5553 5549 5547 5544 5542 5539 5536 5533 5530 5528 5526 5525 5523 5522 5522 5521 5521 5521 5521 5522 5522 5523 5523 5524 5524 5525 5526
5575 5573 5571 5568 5566 5566 5567 5564 5562 5562 5561 5557 5555 5553 5551 5549 5547 5545 5542 5540 5537 5535 5533 5530 5527 5525 5523 5521 5520 5518 5517 5516 5516 5515 5515 5515 5515 5515 5516 5516 5517 5517 5518 5519
5569 5566 5564 5562 5560 5562 5559 5557 5556 5555 5552 5550 5548 5546 5544 5542 5539 5537 5535 5533 5531 5528 5526 5524 5522 5520 5518 5516 5515 5513 5512 5511 5511 5510 5510 5510 5509 5509 5509 5510 5510 5511 5511 5512
5564 5562 5558 5557 5557 5555 5552 5550 5549 5547 5545 5543 5541 5539 5537 5535 5532 5530 5529 5527 5524 5522 5520 5518 5516 5515 5513 5511 5510 5509 5508 5507 5506 5505 5505 5504 5504 5504 5504 5503 5504 5504 5504 5505
5558 5555 5552 5550 5550 5548 5546 5544 5542 5541 5538 5536 5534 5532 5530 5528 5526 5524 5522 5520 5518 5516 5514 5512 5511 5509 5508 5506 5505 5504 5503 5502 5501 5500 5499 5499 5498 5498 5497 5497 5497 5497 5498 5498
5552 5549 5546 5544 5543 5541 5540 5538 5536 5534 5532 5530 5528 5525 5523 5521 5519 5517 5515 5513 5512 5510 5508 5507 5505 5504 5503 5501 5500 5499 5498 5497 5496 5495 5494 5493 5493 5492 5492 5491 5491 5491 5491 5491
5547 5543 5540 5538 5537 5534 5533 5531 5529 5527 5525 5523 5521 5518 5516 5514 5512 5510 5509 5507 5505 5504 5503 5501 5500 5499 5498 5497 5495 5494 5493 5492 5491 5490 5489 5488 5487 5487 5486 5485 5485 5485 5485 5485